Time,TemperatureF,DewpointF,PressureIn,WindDirection,WindDirectionDegrees,WindSpeedMPH,WindSpeedGustMPH,Humidity,HourlyPrecipIn,Conditions,Clouds,dailyrainin,SoftwareType,DateUTC
2014-07-23 00:00:00,65.2,62.0,30.08,SE,129,0.0,-999.0,89,-99.99,,,0.01,weatherlink.com 1.10,2014-07-23 07:00:00,
2014-07-23 00:15:00,65.0,61.0,30.07,SE,130,0.0,-999.0,88,-99.99,,,0.01,weatherlink.com 1.10,2014-07-23 07:15:00,
2014-07-23 00:30:00,64.5,61.0,30.07,SE,130,0.0,-999.0,88,-99.99,,,0.01,weatherlink.com 1.10,2014-07-23 07:30:00,
2014-07-23 00:45:00,64.1,61.0,30.07,SE,130,0.0,-999.0,89,-99.99,,,0.01,weatherlink.com 1.10,2014-07-23 07:45:00,
2014-07-23 01:00:00,63.8,61.0,30.07,SE,129,0.0,-999.0,90,-99.99,,,0.01,weatherlink.com 1.10,2014-07-23 08:00:00,
2014-07-23 01:15:00,63.4,61.0,30.07,SE,129,0.0,-999.0,90,-99.99,,,0.01,weatherlink.com 1.10,2014-07-23 08:15:00,
2014-07-23 01:30:00,62.9,60.0,30.07,SE,129,0.0,-999.0,90,-99.99,,,0.01,weatherlink.com 1.10,2014-07-23 08:30:00,
2014-07-23 01:45:00,62.3,59.0,30.07,SE,129,0.0,-999.0,90,-99.99,,,0.01,weatherlink.com 1.10,2014-07-23 08:45:00,
2014-07-23 02:00:00,62.0,59.0,30.07,SE,129,0.0,-999.0,91,-99.99,,,0.01,weatherlink.com 1.10,2014-07-23 09:00:00,
2014-07-23 02:15:00,61.2,59.0,30.07,SE,129,0.0,-999.0,91,-99.99,,,0.00,weatherlink.com 1.10,2014-07-23 09:15:00,
2014-07-23 02:30:00,60.9,58.0,30.07,SE,129,0.0,-999.0,91,-99.99,,,0.00,weatherlink.com 1.10,2014-07-23 09:30:00,
2014-07-23 02:45:00,61.0,58.0,30.06,SE,129,0.0,-999.0,91,-99.99,,,0.00,weatherlink.com 1.10,2014-07-23 09:45:00,
2014-07-23 03:00:00,61.5,59.0,30.06,SE,130,0.0,-999.0,92,-99.99,,,0.00,weatherlink.com 1.10,2014-07-23 10:00:00,
2014-07-23 03:15:00,61.7,59.0,30.06,SE,129,1.0,-999.0,91,-99.99,,,0.00,weatherlink.com 1.10,2014-07-23 10:15:00,
2014-07-23 03:30:00,62.1,60.0,30.05,SE,129,1.0,-999.0,92,-99.99,,,0.00,weatherlink.com 1.10,2014-07-23 10:30:00,
2014-07-23 03:45:00,62.7,60.0,30.06,SE,130,3.0,-999.0,91,-99.99,,,0.00,weatherlink.com 1.10,2014-07-23 10:45:00,
2014-07-23 04:00:00,63.0,60.0,30.06,SE,130,0.0,-999.0,91,-99.99,,,0.00,weatherlink.com 1.10,2014-07-23 11:00:00,
2014-07-23 04:15:00,62.9,60.0,30.05,SE,130,0.0,-999.0,91,-99.99,,,0.00,weatherlink.com 1.10,2014-07-23 11:15:00,
2014-07-23 04:30:00,63.2,61.0,30.05,SE,129,0.0,-999.0,91,-99.99,,,0.00,weatherlink.com 1.10,2014-07-23 11:30:00,
2014-07-23 04:45:00,63.4,61.0,30.05,SE,129,3.0,-999.0,91,-99.99,,,0.00,weatherlink.com 1.10,2014-07-23 11:45:00,
2014-07-23 05:00:00,63.4,61.0,30.06,SE,130,0.0,-999.0,91,-99.99,,,0.00,weatherlink.com 1.10,2014-07-23 12:00:00,
2014-07-23 05:15:00,63.5,61.0,30.06,SE,130,0.0,-999.0,91,-99.99,,,0.00,weatherlink.com 1.10,2014-07-23 12:15:00,
2014-07-23 05:30:00,63.6,61.0,30.07,SE,130,0.0,-999.0,90,-99.99,,,0.00,weatherlink.com 1.10,2014-07-23 12:30:00,
2014-07-23 05:45:00,63.6,61.0,30.07,SE,130,0.0,-999.0,90,-99.99,,,0.00,weatherlink.com 1.10,2014-07-23 12:45:00,
2014-07-23 06:00:00,63.8,61.0,30.07,SE,129,0.0,-999.0,90,-99.99,,,0.00,weatherlink.com 1.10,2014-07-23 13:00:00,
2014-07-23 06:15:00,63.7,61.0,30.07,SE,130,0.0,-999.0,90,-99.99,,,0.00,weatherlink.com 1.10,2014-07-23 13:15:00,
2014-07-23 06:30:00,63.9,61.0,30.07,SE,130,0.0,-999.0,90,-99.99,,,0.00,weatherlink.com 1.10,2014-07-23 13:30:00,
2014-07-23 06:45:00,64.0,61.0,30.08,SE,130,0.0,-999.0,89,-99.99,,,0.00,weatherlink.com 1.10,2014-07-23 13:45:00,
2014-07-23 07:00:00,64.4,61.0,30.08,SE,130,1.0,-999.0,89,-99.99,,,0.00,weatherlink.com 1.10,2014-07-23 14:00:00,
2014-07-23 07:16:00,64.7,62.0,30.09,SE,130,0.0,-999.0,89,-99.99,,,0.00,weatherlink.com 1.10,2014-07-23 14:16:00,
2014-07-23 07:30:00,66.0,62.0,30.09,SE,130,0.0,-999.0,87,-99.99,,,0.00,weatherlink.com 1.10,2014-07-23 14:30:00,
2014-07-23 07:45:00,65.9,62.0,30.09,SE,133,0.0,-999.0,86,-99.99,,,0.00,weatherlink.com 1.10,2014-07-23 14:45:00,
2014-07-23 08:00:00,65.2,61.0,30.09,ESE,122,3.0,-999.0,87,-99.99,,,0.00,weatherlink.com 1.10,2014-07-23 15:00:00,
2014-07-23 08:15:00,65.1,62.0,30.10,ESE,122,2.0,-999.0,88,-99.99,,,0.00,weatherlink.com 1.10,2014-07-23 15:15:00,
2014-07-23 08:30:00,65.9,62.0,30.10,ESE,122,0.0,-999.0,88,-99.99,,,0.00,weatherlink.com 1.10,2014-07-23 15:30:00,
2014-07-23 08:45:00,67.0,63.0,30.10,ESE,121,3.0,-999.0,86,-99.99,,,0.00,weatherlink.com 1.10,2014-07-23 15:45:00,
2014-07-23 09:00:00,68.6,63.0,30.11,SSW,198,2.0,-999.0,83,-99.99,,,0.00,weatherlink.com 1.10,2014-07-23 16:00:00,
2014-07-23 09:15:00,67.7,62.0,30.11,SW,223,0.0,-999.0,82,-99.99,,,0.00,weatherlink.com 1.10,2014-07-23 16:15:00,
2014-07-23 09:30:00,67.2,62.0,30.11,SW,222,5.0,-999.0,83,-99.99,,,0.00,weatherlink.com 1.10,2014-07-23 16:30:00,
2014-07-23 09:45:00,66.9,62.0,30.11,SW,222,2.0,-999.0,83,-99.99,,,0.00,weatherlink.com 1.10,2014-07-23 16:45:00,
2014-07-23 10:00:00,66.8,62.0,30.11,SSW,213,0.0,-999.0,84,-99.99,,,0.00,weatherlink.com 1.10,2014-07-23 17:00:00,
2014-07-23 10:15:00,67.2,63.0,30.12,SW,229,3.0,-999.0,85,-99.99,,,0.00,weatherlink.com 1.10,2014-07-23 17:15:00,
2014-07-23 10:30:00,66.5,62.0,30.11,SW,233,5.0,-999.0,85,-99.99,,,0.00,weatherlink.com 1.10,2014-07-23 17:30:00,
2014-07-23 10:45:00,66.6,62.0,30.11,SW,232,3.0,-999.0,85,-99.99,,,0.00,weatherlink.com 1.10,2014-07-23 17:45:00,